Regional Weather Roundup
Issued by NWS Sterling, VA

Home | Current Version | Previous Version | Graphics & Text | Print | Product List | Glossary On
Versions: 1 2 3 4 5 6 7 8 9 10 11 12 13 14 15 16 17 18 19 20 21 22 23 24 25 26 27 28
000
ASUS41 KLWX 220311
RWRLWX

REGIONAL WEATHER ROUNDUP
NATIONAL WEATHER SERVICE BALTIMORE MD/WASHINGTON DC
1100 PM EDT FRI APR 21 2017

Note: "FAIR" indicates few or no clouds below 12,000 feet
with no significant weather and/or obstructions to visibility.
 TC=TEMPERATURE CELSIUS

 * =Non NWS site. Station does not report precipitation (e.g. rain,
    snow, etc.), thunder, or fog.

DCZ001-MDZ009-015-VAZ040>042-051-053>054-220400-
WASHINGTON METRO

CITY           SKY/WX    TMP DP  RH WIND       PRES   REMARKS
WASHINGTON NAT LGT RAIN  68  66  93 NE12      29.87R
DULLES         PTCLDY    70  61  73 NW5       29.86R
ANDREWS AFB    LGT RAIN  64  63  94 NE6       29.86R
FT BELVOIR     CLOUDY    69  64  86 CALM      29.85R
QUANTICO       MOCLDY    68  67  96 E3        29.85S
COLLEGE PARK*  CLOUDY    64  60  87 NE5       29.87S
LEESBURG*      PTCLDY    70  64  83 NE9G16    29.88S
MANASSAS*        N/A     69  65  86 CALM      29.85F

$$

MDZ006>007-011-014-220400-
BALTIMORE METRO

CITY           SKY/WX    TMP DP  RH WIND       PRES   REMARKS
BWI AIRPORT    MOCLDY    64  60  87 E10       29.88R
MD SCIENCE CTR   N/A     66  58  75 MISG      29.89R
MARTIN STATE   CLOUDY    63  61  94 E9        29.89F
ANNAPOLIS      CLOUDY    65  61  87 NE8       29.87R
FORT MEADE*    CLEAR     61  57  88 NE7       29.90F

$$

MDZ012-015-019>023-220400-
MARYLAND EASTERN SHORE

CITY           SKY/WX    TMP DP  RH WIND       PRES   REMARKS
OCEAN CITY     LGT RAIN  54  52  93 CALM      29.89R
SALISBURY      LGT RAIN  57  57 100 NE5       29.87F
BAY BRIDGE AP* CLOUDY    63  59  88 NE8       29.87S
CAMBRIDGE*     PTCLDY    64  59  82 E9        29.85F
EASTON*        MOCLDY    62  58  87 E8        29.90F

$$

MDZ017>025-220400-
SOUTHERN MARYLAND

CITY           SKY/WX    TMP DP  RH WIND       PRES   REMARKS
PATUXENT RIVER CLOUDY    68  65  90 SE13      29.82F
ST INIGOES     CLOUDY    68  64  87 SE9       29.83F
LEONARDTOWN*   CLOUDY    64  63  94 CALM      29.86S

$$

MDZ003>005-220400-
NORTH CENTRAL MARYLAND

CITY           SKY/WX    TMP DP  RH WIND       PRES   REMARKS
FREDERICK*     CLOUDY    66  66 100 N3        29.91S
HAGERSTOWN APT CLOUDY    68  40  35 CALM      29.88S
WESTMINSTER*   CLOUDY    64  63  94 CALM      29.89S

$$

MDZ501>502-220400-
WESTERN MARYLAND

CITY           SKY/WX    TMP DP  RH WIND       PRES   REMARKS
OAKLAND*       CLOUDY    50  39  66 NW5       29.99R
CUMBERLAND*    PTCLDY    64  43  45 NW7       29.96R

$$

VAZ025>031-220400-
SHENANDOAH VALLEY

CITY           SKY/WX    TMP DP  RH WIND       PRES   REMARKS
WINCHESTER*    CLOUDY    68  45  42 CALM      29.88R
FRONT ROYAL*   PTCLDY    70  48  46 CALM      29.87S
LURAY*         MOCLDY    72  46  40 N3        29.88S
NEW MARKET*    CLOUDY    66  54  65 CALM      29.89R
STAUNTON*      MOCLDY    67  58  74 S3        29.91S
WAYNESBORO*    CLOUDY    69  60  74 W5        29.91S

$$

WVZ021-048>050-054>055-220400-
EASTERN WEST VIRGINIA PANHANDLE

CITY           SKY/WX    TMP DP  RH WIND       PRES   REMARKS
MARTINSBURG    CLOUDY    66  41  40 E5        29.87S
PETERSBURG*    CLOUDY    62  52  70 N5        29.93R

$$

VAZ036>039-050-220400-
CENTRAL FOOTHILLS

CITY           SKY/WX    TMP DP  RH WIND       PRES   REMARKS
CHARLOTTESVILL CLOUDY    72  60  66 CALM      29.85S
CULPEPER*      CLOUDY    70  65  84 CALM      29.86S
ORANGE*        CLOUDY    66  63  88 CALM      29.85R
GORDONSVILLE*  CLOUDY    66  64  94 CALM      29.84S
WARRENTON*     CLOUDY    71  62  72 CALM      29.86R

$$

VAZ055>057-220400-
NORTH AND CENTRAL PIEDMONT

CITY           SKY/WX    TMP DP  RH WIND       PRES   REMARKS
FREDERICKSBRG* CLEAR     68  64  88 CALM      29.84S
STAFFORD*      PTCLDY    64  64 100 CALM      29.89S FOG

$$

NCZ024-NYZ072-PAZ021-071-VAZ022-071-220400-
OTHER REGIONAL OBSERVATIONS

CITY           SKY/WX    TMP DP  RH WIND       PRES   REMARKS
NEW YORK CITY  CLOUDY    48  47  96 NE7       29.96R FOG
PHILADELPHIA   MOCLDY    56  53  90 E6        29.90F
PITTSBURGH     MOCLDY    51  41  68 N15       30.00R
ROANOKE        LGT RAIN  69  60  73 W12       29.95R
RICHMOND       PTCLDY    68  67  96 SE6       29.84F
RALEIGH        CLOUDY    70  65  84 CALM      29.90R

$$

ANZ530>537-220400-
MARINE OBSERVATIONS

STATION/POSITION TIME  TEMP    WIND        PRES
                       AIR SEA DIR/SP/G
                 (UTC) (F)     (DEG/KT/KT) (MB)
THOMAS PT LIGHT  0300   63 60   40/ 12/ 12   N/A
BALT KEY BRIDGE  0242   63      70/ 10/ 13 1011.8R
COVE POINT       0242   66     190/  8/  9 1011.1S
LEWISETTA        0242   66 66  150/  7/  8 1010.4F
SOLOMONS ISLAND  0248           70/  7/ 10   N/A
PINEY POINT      0248          180/ 11/ 12   N/A

$$





USA.gov is the U.S. government's official web portal to all federal, state and local government web resources and services.